Weather History for Santander Airport, Spain

Change the Weather History Date:

Tuesday, January 6, 2009

  Actual Average Record
Temperature  
Mean Temperature 40 °F -  
Max Temperature 44 °F 52 °F 71 °F (1999)
Min Temperature 37 °F 42 °F 37 °F (2009)
Degree Days  
Heating Degree Days 24    
Moisture  
Dew Point 35 °F    
Average Humidity 78    
Maximum Humidity 93    
Minimum Humidity 66    
Precipitation  
Precipitation 0.00 in - - ()
Sea Level Pressure  
Sea Level Pressure 30.04 in    
Wind  
Wind Speed 9 mph ()    
Max Wind Speed 21 mph    
Max Gust Speed 25 mph    
Visibility 6.2 miles    
Events Rain    
Averages and records for this station are not official NWS values.
T = Trace of Precipitation, MM = Missing Value Source: Averaged Metar Reports

Daily Weather History Graph

Daily Weather History Graph

Search for Another Location

Airport:

Trip Planner

Search our weather history database for the weather conditions in past years. The results will help you decide how hot, cold, wet, or windy it might be!

Date:

Astronomy

Jan. 06, 2009 Rise Set
Actual Time 8:47 AM CET 5:54 PM CET
Civil Twilight 8:15 AM CET 6:27 PM CET
Nautical Twilight 7:39 AM CET 7:02 PM CET
Astronomical Twilight 7:05 AM CET 7:37 PM CET
Moon 1:20 PM CET (1/6) 3:34 AM CET (1/6)
Length of Visible Light 10h 11m
Length of Day
9h 06m
Waxing Gibbous, 71% of the Moon is Illuminated
Jan 6
Waxing Gibbous
Jan 11
Full
Jan 18
Last Quarter
Jan 26
New
Feb 3
First Quarter

Hourly Weather History & Observations

Time (CET) Temp. Windchill Dew Point Humidity Pressure Visibility Wind Dir Wind Speed Gust Speed Precip Events Conditions
5:30 AM 42.8 °F 38.6 °F 39.2 °F 87% 29.98 in 6.2 mi North 6.9 mph - N/A Rain Light Rain Showers
6:00 AM 41.0 °F 37.1 °F 39.2 °F 93% 29.98 in 6.2 mi SSW 5.8 mph - N/A Rain Light Rain Showers
6:30 AM 41.0 °F 37.1 °F 39.2 °F 93% 29.98 in 6.2 mi NW 5.8 mph - N/A Rain Light Rain Showers
7:00 AM 42.8 °F 35.8 °F 39.2 °F 87% 30.01 in 6.2 mi North 13.8 mph - N/A   Mostly Cloudy
7:30 AM 44.6 °F 39.2 °F 37.4 °F 76% 30.01 in 6.2 mi North 10.4 mph - N/A   Mostly Cloudy
8:00 AM 42.8 °F 37.5 °F 37.4 °F 81% 30.01 in 6.2 mi NNE 9.2 mph - N/A   Mostly Cloudy
8:30 AM 44.6 °F 39.7 °F 37.4 °F 76% 30.01 in 6.2 mi NNE 9.2 mph - N/A   Mostly Cloudy
9:00 AM 41.0 °F 34.3 °F 37.4 °F 87% 30.01 in 6.2 mi NNE 11.5 mph - N/A Rain Light Rain Showers
9:30 AM 41.0 °F 37.1 °F 35.6 °F 81% 30.01 in 6.2 mi NW 5.8 mph - N/A   Mostly Cloudy
10:00 AM 41.0 °F 31.6 °F 37.4 °F 87% 30.04 in 6.2 mi North 20.7 mph - N/A Rain Light Rain Showers
10:30 AM 41.0 °F 33.1 °F 35.6 °F 81% 30.04 in 6.2 mi NNE 15.0 mph - N/A   Mostly Cloudy
11:00 AM 41.0 °F 34.3 °F 37.4 °F 87% 30.06 in 6.2 mi NNE 11.5 mph - N/A   Mostly Cloudy
11:30 AM 42.8 °F 38.6 °F 35.6 °F 76% 30.06 in 6.2 mi NE 6.9 mph - N/A   Mostly Cloudy
12:00 PM 41.0 °F 34.3 °F 35.6 °F 81% 30.06 in 6.2 mi NNE 11.5 mph - N/A Rain Light Rain Showers
12:30 PM 42.8 °F 39.3 °F 33.8 °F 70% 30.04 in 6.2 mi NE 5.8 mph - N/A   Mostly Cloudy
1:00 PM 42.8 °F 36.6 °F 32.0 °F 66% 30.04 in 6.2 mi North 11.5 mph - N/A   Mostly Cloudy
1:30 PM 42.8 °F 36.2 °F 32.0 °F 66% 30.04 in 6.2 mi NNE 12.7 mph - N/A   Mostly Cloudy
2:00 PM 42.8 °F 36.2 °F 32.0 °F 66% 30.04 in 6.2 mi NNE 12.7 mph - N/A   Mostly Cloudy
2:30 PM 42.8 °F 36.6 °F 32.0 °F 66% 30.04 in 6.2 mi NNE 11.5 mph - N/A   Mostly Cloudy
3:00 PM 42.8 °F 36.2 °F 32.0 °F 66% 30.04 in 6.2 mi NNE 12.7 mph - N/A   Mostly Cloudy
3:30 PM 42.8 °F 36.6 °F 32.0 °F 66% 30.04 in 6.2 mi North 11.5 mph - N/A   Mostly Cloudy
4:00 PM 42.8 °F 36.6 °F 33.8 °F 70% 30.04 in 6.2 mi NNE 11.5 mph - N/A   Mostly Cloudy
4:30 PM 42.8 °F 36.6 °F 35.6 °F 76% 30.04 in 6.2 mi North 11.5 mph - N/A   Mostly Cloudy
5:00 PM 42.8 °F 36.6 °F 33.8 °F 70% 30.04 in 6.2 mi NNE 11.5 mph - N/A   Mostly Cloudy
5:30 PM 42.8 °F 36.6 °F 33.8 °F 70% 30.04 in 6.2 mi NNE 11.5 mph - N/A Rain Light Rain Showers
6:00 PM 42.8 °F 37.0 °F 32.0 °F 66% 30.04 in 6.2 mi NNE 10.4 mph - N/A   Mostly Cloudy
6:30 PM 39.2 °F 32.5 °F 33.8 °F 81% 30.06 in 6.2 mi NNE 10.4 mph - N/A Rain Light Rain Showers
7:00 PM 39.2 °F 35.0 °F 35.6 °F 87% 30.04 in 6.2 mi SSW 5.8 mph - N/A Rain Light Rain Showers
7:30 PM 37.4 °F 34.9 °F 33.8 °F 87% 30.04 in 6.2 mi South 3.5 mph - N/A   Mostly Cloudy
8:00 PM 39.2 °F 34.2 °F 35.6 °F 87% 30.06 in 6.2 mi ESE 6.9 mph - N/A   Mostly Cloudy
8:30 PM 39.2 °F 34.2 °F 33.8 °F 81% 30.06 in 6.2 mi East 6.9 mph - N/A   Mostly Cloudy
9:00 PM 39.2 °F 35.0 °F 33.8 °F 81% 30.06 in 6.2 mi SE 5.8 mph - N/A   Mostly Cloudy
9:30 PM 41.0 °F 34.7 °F 33.8 °F 76% 30.06 in 6.2 mi NE 10.4 mph 25.3 mph N/A Rain Light Rain Showers
10:00 PM 41.0 °F 32.8 °F 35.6 °F 81% 30.06 in 6.2 mi NE 16.1 mph - N/A   Mostly Cloudy
10:30 PM 41.0 °F 32.2 °F 33.8 °F 76% 30.06 in 6.2 mi NNE 18.4 mph - N/A   Mostly Cloudy
11:00 PM 39.2 °F 33.0 °F 33.8 °F 81% 30.06 in 6.2 mi East 9.2 mph - N/A   Mostly Cloudy